RADUGA 11 [-]

Last updated on Tue Jun 27 2023 00:03:02 GMT+0000 (Coordinated Universal Time)

1 13669U 82113A 23176.62482571 -.00000136 00000+0 00000+0 0 9993 2 13669 11.3642 319.0570 0038154 261.6182 107.5677 0.97709878110905

Satellite not in orbit

RADUGA 11 [-]